Showing default

EXPLORER 22, 899

Orbit data source: Space-Track

EXPLORER 22, 899 is a payload satellite owned by GSFC (US) in LEO that was launched on Sat, 10 Oct 1964 UTC via an SCOUT X-4 launch vehicle from the Air Force Western Test Range (AFWTR). Payload-class satellites include a variety of spacecraft equipped with specific instruments for various scientific and technological missions. These include communications satellites like Starlink; space stations such as the ISS; scientific satellites like the Hubble; Earth observation satellites from companies like Planet Labs, Umbra, and HawkEye 360; GPS; miniature CubeSats for education and research; and military/defense satellites.

Loading next visibility...
Identifier
899, 1964-064A
Orbit
LEO
Country
Flag of USUS
Related business
Manufacturer
APL
Mission
Spacecraft
Bus & Motor
TRANSIT 5, Unknown motor
Mass
52 kg wet, 52 kg dry
Launch date (UTC)
1964-10-10 (61 years ago)
Launch vehicle
SCOUT X-4
Launch site
Air Force Western Test Range (AFWTR)
Object type
Payload
Rocket body
Debris
Shape & HBR
Unknown
Radar Cross Section
Large (>1 m²)

Expand to show TLE details & history
Last TLE update: 7 hours ago

TLE from 7 hours ago
0 EXPLORER 22
1 00899U 64064A   25308.61779852  .00000177  00000-0  14660-3 0  9994
2 00899  79.6930  12.7423 0120228  63.9718 297.3754 13.82964250 73939
Epoch: 2025-11-04T14:49Z
TLE epoch observation values (Epoch: 2025-11-04T14:49:37.792Z)
Latitude
0.00002°
Longitude
106.23259°
Altitude
916.505 km
Speed
7.414 km/s
True Right ascension
00h 50m 58s
True Declination
0° 00' 00"
Sunlit
Object was in full shadow at epoch
Visualization orbit readout
Latitude
Unknown
Longitude
Unknown
Altitude
Unknown
Speed
Unknown
Apparent Right ascension
Unknown
Apparent Declination
Unknown
Sunlit
N/A
Visualization observer readout
Local Sidereal Time
17:47:23
Azimuth
Unknown
Elevation
Unknown
Doppler factor
Unknown
Orbital elements
Apogee altitude
1,038.794 km
Perigee altitude
862.568 km
Semi-major axis
7,328.818 km
Eccentricity
0.01202
Inclination
79.693°
RAAN
12.7423°
Arg. of periapsis
63.9718°
True anomaly
296.14356°
Mean anomaly
297.3754°
Eccentric anomaly
296.76032°
Mean motion
3.45933 °/min
Orbital period
104.07 mins
BSTAR
0.0001466
Loading maneuver chart data...
Computing Atmospheric mass density...
Loading historical data...
Loading historical data...
Loading historical data...
Loading historical data...
Loading historical data...
Loading historical data...
Loading historical data...
Other satellites on launch #64 in the year 1964 (1964-10-10 UTC)

Documentation

Showing up to 5 results
|